Regional Weather Roundup
Issued by NWS Little Rock, AR

Home | Current Version | Previous Version | Graphics & Text | Print | Product List | Glossary On
Versions: 1 2 3 4 5 6 7 8 9 10 11 12 13 14 15 16 17 18 19 20 21 22 23 24 25 26 27 28 29 30 31 32 33 34 35 36 37 38 39 40 41 42 43 44 45 46 47 48 49 50
000
ASUS44 KLZK 130105
RWRLZK

WEATHER ROUNDUP FOR ARKANSAS
NATIONAL WEATHER SERVICE LITTLE ROCK AR
700 PM CST FRI FEB 12 2016

NOTE: "FAIR" INDICATES FEW OR NO CLOUDS BELOW 12,000 FEET WITH NO
SIGNIFICANT WEATHER AND/OR OBSTRUCTIONS TO VISIBILITY.

ARZ001-003-010-029-130200-
NORTHWEST ARKANSAS

CITY           SKY/WX    TMP DP  RH WIND       PRES   REMARKS
FAYETTEVILLE   PTCLDY    41  25  53 N8        30.40R
FORT SMITH     CLEAR     51  24  34 N10       30.37R
HARRISON       CLEAR     40  23  50 NW9       30.39R
BENTONVILLE    MOCLDY    41  21  45 N8        30.42R
ROGERS         CLEAR     40  24  53 N5        30.42R
SILOAM SPGS    CLOUDY    39  21  48 N8        30.42R
HIGHFILL       MOCLDY    40  26  57 N8        30.40R
$$

ARZ004-005-016-130200-
NORTH CENTRAL ARKANSAS

CITY           SKY/WX    TMP DP  RH WIND       PRES   REMARKS
BATESVILLE     CLEAR     46  25  42 N3        30.37R
FLIPPIN        CLEAR     45  19  36 NW7       30.37R
MTN HOME       CLEAR     41  22  46 N5        30.38R
$$

ARZ040-041-130200-
WEST CENTRAL ARKANSAS

CITY           SKY/WX    TMP DP  RH WIND       PRES   REMARKS
MENA           CLEAR     54  34  47 CALM      30.33R
MOUNT IDA      CLEAR     53  33  46 NW3       30.30R HAZE
$$

ARZ009-017-025-026-028-130200-
NORTHEAST ARKANSAS

CITY           SKY/WX    TMP DP  RH WIND       PRES   REMARKS
CORNING        FAIR      41  25  52 N8        30.38R
JONESBORO      CLEAR     45  25  45 N6        30.35R
NEWPORT        CLEAR     42  25  51 N9        30.36R
WALNUT RIDGE   CLEAR     37  21  52 N10       30.37R
BLYTHEVILLE    CLEAR     37  27  67 NE8       30.36R
$$

ARZ022-023-033-042-044-130200-
CENTRAL ARKANSAS

CITY           SKY/WX    TMP DP  RH WIND       PRES   REMARKS
LITTLE ROCK    PTCLDY    53  28  38 N8        30.33R
N LITTLE ROCK  PTCLDY    51  30  44 N8        30.33R
JACKSONVILLE   CLEAR     52  26  36 N5        30.33R
SEARCY         CLEAR     48  28  46 N7        30.36R
HOT SPRINGS    CLEAR     52  32  46 CALM      30.31R
RUSSELLVILLE   CLEAR     52  24  33 N9G18     30.34R
CLINTON        FAIR      48  25  40 CALM      30.37R
$$

ARZ036-130200-
EAST ARKANSAS

CITY           SKY/WX    TMP DP  RH WIND       PRES   REMARKS
WEST MEMPHIS   CLEAR     42  29  59 NE3       30.33R
$$

ARZ050-053-066-070-073-130200-
SOUTHWEST ARKANSAS

CITY           SKY/WX    TMP DP  RH WIND       PRES   REMARKS
ARKADELPHIA    FAIR      56  35  45 N3        30.32R
CAMDEN         CLEAR     55  32  41 NE7       30.30R
TEXARKANA      CLEAR     60  35  39 N6        30.29R
EL DORADO      CLEAR     48  38  68 CALM      30.28R
DE QUEEN       CLEAR     57  33  40 N3        30.30R
$$

ARZ056-057-069-130200-
SOUTHEAST ARKANSAS

CITY           SKY/WX    TMP DP  RH WIND       PRES   REMARKS
PINE BLUFF     CLEAR     48  34  58 NE3       30.32R
STUTTGART      CLEAR     48  34  57 NE5       30.34R
MONTICELLO     CLEAR     51  34  52 NE5       30.31R

$$





USA.gov is the U.S. government's official web portal to all federal, state and local government web resources and services.